RUZAEVKA 390 (RS44S)

Last updated on Wed Feb 05 2025 00:03:01 GMT+0000 (Coordinated Universal Time)

1 61766U 24199AH 25035.55669084 .00037135 00000+0 12503-2 0 9990 2 61766 97.3763 265.4267 0010812 264.0845 95.9164 15.30619097 57834
UTC large
Height (km)
Speed (km/s)
/
Latitude / Longitude
Inclination (degrees)
Orbital Period (minutes)
Azimuth
Elevation
Range (km)
Doppler Factor

Next 0 passes for location: London (51.5072 / 0.1276)

Sorry there are no passes over London.